Date String (YYYY-MM-DD hh:mm:ss) UTC,Instrument flags,Ambient pressure (hPa),Sample flow (lpm),Bypass flow (lpm),Sample temperature (°C),Ambient temperature (°C),ASC tube jacket temperature (°C),LED temperature (°C),Box temperature (°C),Sample RH (%),Span deviation,Mass concentration (μg/m³),Mass concentration (μg/m³),Mass concentration (μg/m³)
DateTimeUTC,F1_M11,P_M11,Q1_M11,Q2_M11,T1_M11,T2_M11,T3_M11,T4_M11,T5_M11,U1_M11,ZSPAN_M11,X2_M11,X0_M11,X1_M11
2022-02-17 21:00:00,,0826.0,5.01,0.00,21.5,21.3,00.0,30.6,23.2,08.0,0000.0,0004.36,0007.39,0004.05
2022-02-17 21:01:00,,0826.0,5.00,0.00,21.5,21.1,00.0,30.6,23.1,08.0,0000.0,0004.33,0007.27,0004.03
2022-02-17 21:02:00,,0826.0,5.00,0.00,21.4,21.0,00.0,30.5,23.0,08.3,0000.0,0004.31,0007.19,0004.02
2022-02-17 21:03:00,,0826.0,5.00,0.00,21.4,20.8,00.0,30.5,23.0,08.2,0000.0,0004.28,0007.06,0004.02
2022-02-17 21:04:00,,0826.0,5.01,0.00,21.3,20.8,00.0,30.5,22.9,08.4,0000.0,0004.30,0007.33,0004.04
2022-02-17 21:05:00,,0826.0,4.99,0.00,21.3,20.7,00.0,30.5,22.9,08.6,0000.0,0004.36,0007.65,0004.07
2022-02-17 21:06:00,,0825.9,5.00,0.00,21.3,20.7,00.0,30.5,22.8,08.7,0000.0,0004.39,0007.33,0004.11
2022-02-17 21:07:00,,0825.9,5.00,0.00,21.3,20.7,00.0,30.4,22.8,09.0,0000.0,0004.39,0006.59,0004.15
2022-02-17 21:08:00,,0825.8,5.01,0.00,21.2,20.6,00.0,30.4,22.8,08.9,0000.0,0004.40,0006.43,0004.17
2022-02-17 21:09:00,,0825.9,4.99,0.00,21.2,20.5,00.0,30.4,22.8,09.0,0000.0,0004.45,0006.49,0004.21
2022-02-17 21:10:00,,0825.9,5.00,0.00,21.1,20.5,00.0,30.4,22.7,09.1,0000.0,0004.51,0006.61,0004.26
2022-02-17 21:11:00,,0825.9,5.01,0.00,21.1,20.4,00.0,30.3,22.7,08.6,0000.0,0004.55,0006.71,0004.29
2022-02-17 21:12:00,,0825.9,5.00,0.00,21.1,20.4,00.0,30.3,22.6,08.9,0000.0,0004.63,0006.95,0004.35
2022-02-17 21:13:00,,0825.8,5.00,0.00,21.1,21.0,00.0,30.3,22.8,08.9,0000.0,0004.71,0007.31,0004.39
2022-02-17 21:14:00,,0825.8,5.00,0.00,21.3,22.0,00.0,30.4,23.2,08.7,0000.0,0004.77,0007.42,0004.41
2022-02-17 21:15:00,,0825.8,4.99,0.00,21.5,22.7,00.0,30.4,23.5,08.6,0000.0,0004.78,0007.23,0004.43
2022-02-17 21:16:00,,0825.8,5.00,0.00,21.6,22.5,00.0,30.4,23.5,08.4,0000.0,0004.77,0006.85,0004.42
2022-02-17 21:17:00,,0825.7,5.01,0.00,21.5,22.1,00.0,30.5,23.3,08.1,0000.0,0004.79,0007.04,0004.40
2022-02-17 21:18:00,,0825.7,4.99,0.00,21.5,21.8,00.0,30.5,23.2,08.4,0000.0,0004.75,0006.94,0004.38
2022-02-17 21:19:00,,0825.7,5.01,0.00,21.5,21.6,00.0,30.5,23.2,08.3,0000.0,0004.73,0006.92,0004.35
2022-02-17 21:20:00,,0825.6,5.00,0.00,21.4,21.4,00.0,30.5,23.1,08.6,0000.0,0004.67,0006.98,0004.31
2022-02-17 21:21:00,,0825.6,5.01,0.00,21.4,21.2,00.0,30.5,23.0,08.7,0000.0,0004.64,0006.97,0004.28
2022-02-17 21:22:00,,0825.6,4.99,0.00,21.4,21.1,00.0,30.5,23.0,08.7,0000.0,0004.63,0007.00,0004.27
2022-02-17 21:23:00,,0825.6,5.00,0.00,21.4,21.0,00.0,30.5,23.0,08.4,0000.0,0004.61,0006.91,0004.26
2022-02-17 21:24:00,,0825.6,5.00,0.00,21.3,21.0,00.0,30.4,23.0,08.7,0000.0,0004.58,0006.78,0004.24
2022-02-17 21:25:00,,0825.6,5.01,0.00,21.3,20.8,00.0,30.4,22.9,08.6,0000.0,0004.56,0007.15,0004.23
2022-02-17 21:26:00,,0825.6,4.99,0.00,21.3,20.7,00.0,30.4,22.9,08.4,0000.0,0004.58,0007.54,0004.22
2022-02-17 21:27:00,,0825.7,4.99,0.00,21.2,20.7,00.0,30.4,22.8,08.3,0000.0,0004.58,0007.84,0004.21
2022-02-17 21:28:00,,0825.7,5.00,0.00,21.2,20.6,00.0,30.4,22.8,08.2,0000.0,0004.56,0007.80,0004.21
2022-02-17 21:29:00,,0825.7,5.00,0.00,21.2,20.5,00.0,30.3,22.7,08.4,0000.0,0004.57,0007.88,0004.21
2022-02-17 21:30:00,,0825.6,5.01,0.00,21.1,20.5,00.0,30.3,22.7,08.6,0000.0,0004.58,0007.93,0004.20
2022-02-17 21:31:00,,0825.7,5.00,0.00,21.1,20.5,00.0,30.3,22.6,08.2,0000.0,0004.56,0007.85,0004.19
2022-02-17 21:32:00,,0825.6,4.99,0.00,21.1,20.4,00.0,30.3,22.6,08.1,0000.0,0004.52,0007.77,0004.17
2022-02-17 21:33:00,,0825.6,5.01,0.00,21.0,20.4,00.0,30.3,22.6,08.2,0000.0,0004.52,0007.75,0004.17
2022-02-17 21:34:00,,0825.6,5.01,0.00,21.0,20.4,00.0,30.2,22.6,08.2,0000.0,0004.54,0007.92,0004.17
2022-02-17 21:35:00,,0825.5,5.00,0.00,21.1,21.2,00.0,30.3,22.9,08.1,0000.0,0004.54,0008.37,0004.16
2022-02-17 21:36:00,,0825.6,5.00,0.00,21.3,22.2,00.0,30.3,23.2,08.2,0000.0,0004.54,0008.23,0004.17
2022-02-17 21:37:00,,0825.5,4.99,0.00,21.5,22.7,00.0,30.4,23.5,08.1,0000.0,0004.53,0007.98,0004.18
2022-02-17 21:38:00,,0825.5,5.00,0.00,21.5,22.4,00.0,30.4,23.4,08.2,0000.0,0004.53,0007.69,0004.19
2022-02-17 21:39:00,,0825.5,5.01,0.00,21.5,22.1,00.0,30.4,23.3,08.1,0000.0,0004.55,0007.72,0004.22
2022-02-17 21:40:00,,0825.5,5.01,0.00,21.4,21.7,00.0,30.4,23.1,08.2,0000.0,0004.57,0007.82,0004.23
2022-02-17 21:41:00,,0825.4,4.99,0.00,21.4,21.5,00.0,30.4,23.1,08.5,0000.0,0004.59,0008.32,0004.25
2022-02-17 21:42:00,,0825.4,4.99,0.00,21.4,21.3,00.0,30.4,23.0,08.5,0000.0,0004.61,0008.32,0004.26
2022-02-17 21:43:00,,0825.4,5.00,0.00,21.4,21.2,00.0,30.4,23.0,08.6,0000.0,0004.66,0008.46,0004.29
2022-02-17 21:44:00,,0825.4,4.99,0.00,21.3,21.1,00.0,30.4,23.0,08.0,0000.0,0004.65,0008.49,0004.27
2022-02-17 21:45:00,,0825.3,5.00,0.00,21.3,20.8,00.0,30.4,22.8,07.6,0000.0,0004.57,0008.36,0004.23
2022-02-17 21:46:00,,0825.3,5.02,0.00,21.2,20.6,00.0,30.4,22.7,07.7,0000.0,0004.49,0007.67,0004.18
2022-02-17 21:47:00,,0825.3,5.00,0.00,21.1,20.4,00.0,30.3,22.6,07.6,0000.0,0004.42,0007.42,0004.12
2022-02-17 21:48:00,,0825.3,5.00,0.00,21.1,20.3,00.0,30.3,22.5,07.8,0000.0,0004.36,0007.37,0004.06
2022-02-17 21:49:00,,0825.3,5.02,0.00,21.0,20.2,00.0,30.3,22.4,07.7,0000.0,0004.27,0007.25,0004.00
2022-02-17 21:50:00,,0825.3,4.99,0.00,20.9,20.1,00.0,30.2,22.4,07.7,0000.0,0004.18,0007.04,0003.91
2022-02-17 21:51:00,,0825.3,5.00,0.00,20.9,20.0,00.0,30.2,22.3,07.8,0000.0,0004.08,0006.75,0003.84
2022-02-17 21:52:00,,0825.3,4.99,0.00,20.9,20.8,00.0,30.2,22.5,07.8,0000.0,0004.01,0005.81,0003.79
2022-02-17 21:53:00,,0825.2,5.01,0.00,21.1,21.8,00.0,30.2,23.0,07.8,0000.0,0003.94,0005.39,0003.73
2022-02-17 21:54:00,,0825.2,5.01,0.00,21.3,22.4,00.0,30.3,23.2,08.0,0000.0,0003.85,0005.15,0003.67
2022-02-17 21:55:00,,0825.2,5.00,0.00,21.3,22.1,00.0,30.3,23.2,08.1,0000.0,0003.80,0004.96,0003.63
2022-02-17 21:56:00,,0825.1,4.99,0.00,21.3,21.8,00.0,30.3,23.1,08.2,0000.0,0003.81,0004.99,0003.63
2022-02-17 21:57:00,,0825.2,5.00,0.00,21.3,21.5,00.0,30.3,22.9,08.1,0000.0,0003.84,0005.06,0003.64
2022-02-17 21:58:00,,0825.2,5.01,0.00,21.2,21.1,00.0,30.3,22.7,07.9,0000.0,0003.85,0005.09,0003.66
2022-02-17 21:59:00,,0825.1,5.00,0.00,21.1,20.9,00.0,30.3,22.6,08.1,0000.0,0003.87,0005.09,0003.68
